APRIZESAT 3

Satellite information

Favourite Embed

Satellite Type and Status

PAYLOADIN ORBIT

Key statistics

Satellite APRIZESAT 3 at a glance.

Uptime

5929

Days in orbit

Revolutions

≈ 15.0

Per day

Orbit

SSO

Sun Synchronous Orbit

Inclination

98.2

Latest

Satellite identification and parameters

Extended collection of information and parameters for APRIZESAT 3.

Object identification

Identified? True

Debris? False

Object name: APRIZESAT 3

International designator: 2009-041F

Object number (NORAD): 35686

Object ID (CCSDS): 35686

Country: UNITED STATES OF AMERICA (US)

Current information (Y/N): Y

RCS size: MEDIUM

Orbital parameters

Period: 96.313 minutes

Inclination: 98.1753 deg

SMA: 6960.144 km

Apoapsis: 626.613 km

Periapsis: 537.406 km

RAAN: 72.292 deg

Eccentricy: 0.0064084

Argument of periapsis: 133.0969 deg

Mean anomaly: 227.5638 deg

Mean motion: 14.9511769 rev/day

Mean motion (dot): 0.00004372 rev/day2

B* drag term: 0.00038847 1/REarth

Two-line elements (TLE)

Creation date: Oct. 21, 2025, 11:56 p.m.

Reference frame: TEME

Reference center: EARTH

Epoch: Oct. 21, 2025, 7:28 p.m. UTC

TLE line 0: 0 APRIZESAT 3

TLE line 1: 1 35686U 09041F 25294.81117183 .00004372 00000-0 38847-3 0 9993

TLE line 2: 2 35686 98.1753 72.2920 0064084 133.0969 227.5638 14.95117690880741

Live tracking on map

Real-time ground track for satellite APRIZESAT 3.

In-orbit conjunctions

There are no conjunctions computed for APRIZESAT 3, at the moment. Check back to stay up to date, as we update our databases every day.

Go to all conjunctions

Associated space launch

Emirati Earth observation satellite. Launched with 5 secondary payloads.

APRIZESAT 3 was lifted into orbit during the mission ‘Dnepr | DubaiSat 1’, on board a Dnepr space rocket.

The launch took place on July 29, 2009, 6:46 p.m. from 109/95.

For more information about the launch, click the button.

Launch to space Dnepr | DubaiSat 1
Dnepr | DubaiSat 1

Agency: N/A

Status: Launch Successful

Launch date: July 29, 2009, 6:46 p.m. UTC

Rocket: Dnepr

Launch pad: 109/95

Location: Baikonur Cosmodrome, Republic of Kazakhstan

...

Latest news about this satellite

There are no fresh news available about this satellite. Check back as we update our databases every day.


Newsletter sign-up

Weekly statistics, charts and insights to help you stay on top of the space industry.